Theta_e
326 326 328 327 326 328 326 326 329 326 328 329 327 327 320 317 318 314 313 312 312 319 325 325 325 324 324 325 323 321 320 321 322 323 322 320 320 320 319 319 318 319 323 324 322 322 322 324 326 323 323 326 326 326 326 328 328 327 326 326 327 328 327 326 325 324 324 325 326 325 323 322 321 321 321 321 322 324 326 327 326 326 326 326 327
326 326 328 326 326 328 326 326 329 327 328 329 328 329 324 319 320 316 311 311 318 324 325 325 324 323 323 323 323 322 320 322 322 319 316 313 311 311 313 319 321 317 318 320 322 325 323 323 326 325 324 324 326 327 327 328 328 327 327 326 326 327 326 325 325 323 323 325 326 326 324 322 321 320 320 320 320 322 324 326 327 327 327 327 327
326 327 327 326 325 327 326 326 328 329 330 330 329 329 326 323 322 319 311 311 320 324 322 323 323 323 322 321 322 323 322 324 322 315 315 315 312 310 311 318 323 322 320 319 322 325 323 322 324 326 326 326 326 327 327 327 328 328 327 327 326 326 326 326 325 322 323 326 326 325 322 320 320 320 320 320 321 321 322 324 325 325 326 326 327
325 326 327 326 326 325 326 327 328 330 330 330 330 330 328 326 324 321 313 310 316 319 319 319 318 320 319 318 322 321 319 321 317 311 315 315 311 309 309 312 318 322 323 322 322 323 323 322 323 324 326 326 325 325 326 326 326 327 327 327 327 327 326 325 324 322 322 326 326 324 321 320 321 322 321 321 321 321 321 322 322 323 323 323 324
325 326 326 325 325 325 326 327 329 331 330 330 331 331 329 327 324 321 314 311 313 315 317 314 312 315 314 314 316 314 313 317 315 315 317 316 312 309 311 314 315 318 321 321 320 321 322 322 322 323 324 324 324 323 324 324 324 324 325 326 326 327 327 325 325 324 323 325 325 324 322 322 323 323 322 321 321 320 320 320 320 320 320 320 320
325 326 327 326 325 326 326 326 329 331 328 329 332 332 331 329 327 322 315 312 312 313 315 312 311 311 310 310 312 313 316 319 319 320 320 317 314 311 311 314 315 317 320 320 320 320 321 321 321 322 322 323 323 322 322 322 323 323 323 325 325 325 326 326 326 326 325 325 324 323 323 323 324 323 322 322 322 322 321 321 320 319 319 318 318
327 327 327 326 325 325 326 326 328 329 327 328 330 332 333 332 330 324 316 313 313 314 314 313 311 310 311 312 315 319 321 321 321 321 319 314 311 309 309 312 314 317 320 320 319 319 320 320 320 319 319 320 320 320 321 321 322 323 322 323 324 324 325 327 327 326 326 325 324 323 323 323 323 322 322 322 322 322 323 323 323 321 320 319 319
327 328 327 326 324 325 326 326 327 327 327 327 329 331 334 332 328 323 317 314 313 315 314 313 312 311 313 316 318 321 322 321 319 318 315 310 310 313 314 315 316 316 316 315 314 314 315 317 317 317 316 317 318 318 319 319 321 321 321 322 323 322 324 324 324 324 324 324 323 323 323 323 322 322 322 322 322 322 323 324 324 323 322 320 318
323 325 326 325 326 325 324 325 325 325 325 325 328 331 333 332 327 322 318 315 313 314 315 313 312 312 315 317 318 321 321 319 316 313 311 312 317 320 317 315 314 312 309 308 307 307 309 311 313 313 314 314 313 312 312 312 314 314 316 319 321 321 322 323 323 323 323 322 322 322 322 322 322 322 323 323 323 323 323 324 324 323 323 321 318
320 321 322 324 326 326 326 326 327 327 326 325 328 332 333 330 327 323 320 316 314 314 315 313 312 312 315 317 319 321 319 316 317 314 312 316 319 318 314 310 309 308 307 306 306 306 306 307 308 310 310 310 308 306 305 305 306 306 307 310 313 315 317 319 319 319 318 319 319 319 320 321 321 321 321 322 321 321 322 322 321 321 320 318 315
320 320 320 322 324 325 328 330 330 330 329 327 327 331 333 331 326 323 320 316 314 314 314 314 313 312 315 317 319 320 318 317 318 315 313 315 316 316 315 312 309 308 308 307 306 306 306 306 306 307 307 307 306 305 304 304 303 303 303 303 304 305 306 307 308 307 307 308 311 314 318 319 319 319 320 320 319 318 317 316 315 315 315 314 313
320 320 322 323 323 322 325 328 329 331 331 330 329 329 331 331 326 323 321 317 314 315 314 315 314 313 315 317 319 319 318 318 318 315 315 315 316 318 318 315 311 308 307 308 307 307 306 306 306 306 306 306 306 307 306 306 305 305 305 304 304 304 304 304 304 304 303 303 304 306 310 312 313 314 314 313 313 312 311 312 313 315 315 314 312
319 321 323 325 325 323 322 323 326 329 331 332 332 331 331 331 328 325 322 317 315 315 314 316 315 314 315 317 319 319 318 318 318 316 317 318 317 319 319 317 314 310 308 308 307 307 307 306 306 306 306 306 306 307 307 306 306 306 306 306 306 306 306 306 305 305 305 305 304 304 306 307 307 307 306 307 309 310 311 313 314 313 313 310 308
321 324 326 327 327 326 323 322 323 328 331 332 333 334 332 332 330 327 323 317 315 316 315 315 316 315 316 316 318 319 317 318 319 317 319 320 319 319 319 318 317 314 312 309 308 308 307 307 307 306 306 306 306 306 307 309 309 307 306 306 306 306 306 306 306 306 305 305 305 304 305 306 305 305 304 306 309 311 313 314 312 309 309 310 311
322 325 327 327 328 328 327 326 325 328 332 333 334 333 331 331 331 328 324 318 315 315 315 315 316 317 317 315 317 318 316 317 319 318 318 320 319 318 318 319 319 317 315 311 308 308 307 307 307 307 307 306 306 306 306 308 309 307 306 306 306 306 306 306 306 305 305 304 304 304 304 304 304 304 304 304 306 307 309 310 310 310 311 311 313
323 325 327 328 327 328 329 329 330 331 333 333 333 332 330 327 328 328 325 320 315 315 316 315 315 317 318 316 316 317 316 315 319 319 318 319 320 318 317 319 320 319 317 314 311 309 308 308 307 307 307 307 306 306 306 306 307 306 306 306 306 306 306 306 305 305 304 304 304 304 304 303 303 303 303 303 303 303 304 304 307 312 313 313 312
323 324 326 328 327 327 328 329 330 331 332 333 330 331 329 325 324 326 326 323 319 315 315 315 315 317 319 318 317 318 318 316 318 319 319 318 319 318 317 318 319 319 319 317 313 310 309 308 308 308 308 307 307 307 306 306 306 306 306 306 305 305 305 305 305 305 304 304 304 304 304 304 303 303 303 303 303 302 303 302 303 307 311 312 313
323 324 325 326 326 326 327 328 329 328 329 330 328 329 329 326 324 325 326 326 323 319 316 315 316 318 320 320 319 318 319 319 318 319 319 319 320 320 318 317 318 319 319 318 316 312 309 309 309 308 308 308 308 307 307 307 307 307 306 306 306 305 305 305 306 305 305 305 305 305 305 304 304 303 303 303 303 302 302 302 302 302 305 307 310
322 323 324 325 325 325 326 326 327 327 327 327 328 328 328 327 326 325 325 325 325 324 320 318 319 321 321 321 321 320 320 319 318 318 319 319 319 320 319 318 318 319 319 319 317 313 310 309 309 309 309 308 308 308 308 308 308 307 307 307 306 306 306 306 306 306 306 306 306 306 306 306 305 305 305 304 304 304 303 303 303 303 303 303 304
321 322 323 324 323 324 325 326 326 327 327 327 327 327 327 327 326 326 325 324 324 325 324 322 321 322 323 322 322 322 321 321 320 319 318 319 319 320 320 319 318 318 319 319 317 315 312 310 310 309 309 309 309 309 309 308 308 308 308 308 307 306 306 306 306 306 306 306 306 306 306 306 305 305 305 306 306 306 306 306 306 306 306 306 305
320 321 322 322 322 321 323 324 325 326 327 327 326 326 326 326 326 326 325 324 324 325 325 324 323 323 324 324 323 323 323 322 321 320 319 319 320 319 319 319 319 319 319 319 319 318 316 314 313 312 310 310 310 309 309 309 309 309 308 308 308 308 307 307 307 306 306 305 305 306 306 306 306 305 304 305 307 308 309 308 307 308 309 310 309
319 320 320 320 321 321 321 322 323 324 325 326 325 325 325 326 326 326 325 325 325 325 325 325 325 324 323 323 323 323 324 323 321 320 319 319 320 320 319 319 319 319 319 319 319 319 318 318 317 315 314 313 311 310 310 310 309 309 309 309 309 308 308 309 309 307 306 306 305 305 306 306 306 305 304 304 306 307 307 307 307 307 308 308 307
318 318 318 319 320 320 321 321 321 321 322 324 325 324 324 325 325 326 326 325 325 325 325 325 325 324 323 323 323 323 323 322 321 321 320 320 320 320 319 319 319 319 319 319 319 319 319 319 319 318 317 316 315 313 312 311 310 309 310 310 309 309 309 309 309 308 307 308 307 305 305 306 305 305 305 304 305 305 305 306 306 305 305 306 306
317 317 317 318 318 319 319 318 319 319 319 321 324 324 324 324 324 325 325 325 325 325 325 324 324 324 323 323 324 324 324 323 322 322 322 321 321 321 321 319 318 318 318 318 319 319 318 318 319 319 319 318 317 316 314 313 312 311 310 310 310 310 309 309 309 308 308 309 308 306 305 305 305 305 305 304 305 306 306 306 305 304 304 305 306
317 316 316 316 316 316 316 316 317 316 316 317 319 321 322 323 323 324 324 324 324 324 324 324 324 324 324 324 325 325 325 323 322 322 321 321 321 321 321 319 318 318 318 318 319 319 318 318 318 319 320 319 319 318 316 316 314 313 312 311 311 310 310 310 310 309 309 308 308 307 305 305 305 305 304 304 304 305 304 303 303 301 301 303 304
316 316 315 315 314 314 314 314 314 314 315 315 315 317 317 318 319 321 322 322 322 322 323 323 323 323 322 322 323 324 324 323 323 323 323 322 321 319 319 319 319 319 318 316 317 318 318 318 318 319 319 319 319 319 318 317 316 315 314 312 312 311 311 310 310 310 309 309 308 306 305 305 305 304 304 303 303 303 302 301 301 300 299 301 302
316 316 315 315 314 314 314 314 314 313 314 314 314 314 314 314 314 316 317 318 318 320 322 322 322 321 319 318 319 320 322 322 322 322 322 322 321 319 318 317 318 318 318 317 317 318 318 319 318 318 319 319 319 320 319 318 317 316 315 314 313 312 312 311 311 311 310 309 309 307 306 304 304 304 303 303 303 302 301 300 299 299 298 299 300
317 316 316 315 315 314 313 313 314 314 314 314 314 314 313 313 313 313 313 313 315 316 317 317 317 316 315 315 314 315 316 316 316 316 317 318 318 317 316 317 317 317 318 319 319 318 319 319 318 318 319 319 319 319 319 319 318 317 316 315 314 313 312 311 311 311 311 310 310 308 306 304 304 304 303 303 302 301 300 300 298 297 297 297 296
316 316 316 316 315 314 314 313 313 313 314 314 314 314 314 313 313 312 312 312 312 313 313 312 311 311 311 311 310 310 310 311 311 312 312 313 313 313 313 314 315 315 318 319 319 319 319 320 319 319 318 318 319 319 319 319 318 317 316 315 315 314 313 312 311 311 311 311 310 308 306 305 304 304 303 302 302 302 301 300 298 297 296 296 295
314 315 316 316 315 314 313 313 313 313 313 313 313 313 313 313 312 311 311 311 311 311 311 310 308 308 309 309 309 309 308 309 310 312 312 311 311 312 312 313 313 315 317 318 319 320 321 321 321 321 320 319 318 318 318 318 318 318 317 316 315 314 313 312 311 311 311 310 309 307 306 305 304 304 304 304 304 303 301 299 298 297 296 296 296
313 313 314 315 315 314 313 313 312 312 312 312 312 312 312 312 310 309 309 308 308 309 308 308 307 307 307 307 307 307 306 306 309 311 313 314 314 315 316 318 318 316 313 313 315 317 319 319 319 319 320 320 319 319 318 317 318 318 317 316 315 314 313 312 311 310 309 308 307 306 304 304 304 304 304 304 303 302 301 299 298 298 298 297 297
313 313 313 314 314 314 313 313 312 312 311 311 311 311 312 311 309 308 308 307 306 306 306 307 307 306 306 306 306 306 305 304 305 305 307 309 310 312 313 316 318 316 312 310 310 309 312 315 317 319 321 321 320 320 319 317 317 318 317 316 315 314 313 312 310 309 307 307 306 305 304 303 303 303 303 302 301 300 299 299 299 299 298 298 297
313 312 313 313 313 313 313 312 311 311 310 310 310 311 312 311 310 310 309 308 308 307 307 306 306 306 306 305 306 308 307 306 305 304 303 303 303 307 311 313 315 316 316 314 309 306 305 308 312 317 320 321 321 320 320 319 317 317 317 316 315 314 313 311 309 307 307 307 306 304 303 303 302 302 302 300 300 299 299 300 300 299 298 297 296
312 312 312 312 312 312 312 311 310 310 310 309 309 310 310 309 309 310 310 309 309 309 309 309 308 308 308 307 308 309 308 307 305 304 303 303 302 306 311 314 314 315 316 316 313 310 307 305 308 313 316 318 321 321 320 320 318 318 317 315 314 314 312 310 309 307 306 305 304 303 302 302 302 301 301 300 300 300 300 300 300 299 297 296 296
312 312 312 312 312 311 311 311 310 310 309 308 309 309 309 309 309 310 310 309 309 309 310 309 309 309 309 309 310 310 308 306 304 303 302 302 303 305 309 313 314 314 315 316 316 315 313 310 311 314 315 316 319 320 319 319 318 317 316 315 313 312 311 309 308 306 304 304 304 303 303 302 301 300 300 300 300 300 300 299 299 298 297 296 295
311 311 311 311 311 311 310 310 310 309 308 308 309 309 309 309 309 310 309 309 308 308 309 309 308 308 309 310 311 310 309 307 305 304 304 304 304 306 309 312 315 315 315 315 315 316 315 314 314 314 314 315 317 318 318 317 317 317 315 313 312 311 310 309 307 306 305 305 304 304 303 301 300 300 300 300 300 299 299 299 298 297 296 296 296
311 311 311 310 310 309 309 309 309 309 308 308 308 309 309 309 309 309 309 309 308 308 308 308 308 307 308 309 310 310 309 309 307 306 306 306 306 306 308 311 314 315 315 315 314 314 315 315 314 314 313 314 316 316 317 316 316 315 314 312 312 311 310 308 307 306 305 304 303 302 302 301 300 300 300 300 300 300 299 299 298 297 297 296 296
310 310 310 309 308 308 308 308 308 308 307 307 307 307 308 308 308 308 309 309 308 308 308 308 307 307 307 308 309 309 309 309 308 307 306 306 305 303 306 310 313 314 314 314 314 314 314 314 313 312 313 314 315 315 316 316 315 314 313 312 312 311 309 307 305 304 303 302 302 302 301 301 301 300 300 300 300 299 299 298 298 297 297 296 296
308 308 308 308 307 307 307 307 307 306 306 306 307 307 308 308 308 307 308 308 308 308 307 307 307 307 306 307 307 308 308 307 307 307 306 305 303 302 305 309 312 313 313 314 314 313 314 314 313 313 313 314 315 315 314 313 313 313 312 311 310 309 307 305 303 302 302 302 302 302 302 301 301 301 300 299 299 299 298 298 297 297 297 296 296
306 306 306 305 305 305 306 306 306 306 306 306 307 307 307 307 307 307 307 307 307 307 307 307 307 306 306 306 306 307 307 307 308 308 307 305 303 302 303 307 311 313 313 313 313 312 313 313 313 313 313 314 314 313 311 310 311 311 310 309 308 306 305 303 301 301 301 301 301 301 301 301 300 300 299 299 298 298 297 297 297 297 297 296 296
305 305 304 304 304 305 305 305 305 305 305 306 306 306 306 306 306 306 306 307 306 307 307 307 307 306 306 305 305 306 306 307 308 309 309 307 304 302 302 304 308 312 312 312 312 312 312 312 313 313 313 312 312 310 309 309 309 309 309 308 305 302 302 301 301 301 301 301 300 299 299 299 299 298 298 298 298 297 297 297 297 297 296 296 296
304 304 304 304 304 304 304 304 304 304 304 305 305 305 306 306 306 306 306 306 306 307 306 306 306 306 306 305 305 305 305 306 307 308 308 307 306 304 303 305 308 310 312 312 312 312 312 312 312 312 312 311 309 308 308 308 308 307 306 303 300 299 299 300 300 300 300 299 298 298 298 298 298 298 298 298 297 297 297 296 296 295 295 295 294
304 304 304 304 304 304 304 304 304 304 303 303 304 304 304 305 305 306 306 306 306 306 306 306 306 305 305 305 305 305 305 305 306 306 306 307 307 307 307 308 309 310 311 311 311 312 312 312 311 310 310 309 308 307 306 306 305 304 301 299 297 296 296 296 297 297 296 296 296 297 297 297 297 297 297 297 297 296 295 295 294 294 294 293 293
303 303 303 303 303 303 303 303 303 303 303 303 303 303 303 304 305 305 305 305 306 306 306 306 305 305 305 305 305 305 304 305 305 306 306 307 308 309 309 310 310 310 311 311 311 311 311 311 310 309 309 308 306 305 303 301 300 299 297 296 295 295 294 294 294 294 294 293 294 294 295 295 295 295 295 295 295 295 294 294 294 293 293 293 292
302 302 302 302 303 302 303 302 303 303 303 303 303 303 303 303 304 304 305 305 305 306 306 306 306 306 305 305 305 305 305 305 306 306 306 307 308 309 310 310 310 310 311 311 310 310 310 309 309 308 307 306 304 302 300 298 296 295 295 295 295 294 294 294 294 294 293 294 293 293 293 293 294 294 294 294 294 294 294 293 293 293 293 292 292
301 301 301 302 302 302 302 302 302 302 302 302 302 302 303 303 303 303 304 304 304 305 305 305 305 305 305 305 305 305 306 306 306 306 307 307 308 309 309 309 308 308 309 309 309 309 308 308 307 306 305 304 301 298 297 296 295 295 295 295 295 295 295 294 294 294 294 294 294 293 293 293 294 294 295 294 294 293 293 293 293 292 292 292 292
300 300 300 300 301 301 301 301 301 301 302 302 302 302 302 303 303 303 303 303 304 304 304 304 304 304 304 304 305 305 305 305 306 306 307 307 308 308 308 308 307 306 307 308 308 308 308 307 306 304 303 300 298 296 296 295 296 296 296 296 296 296 296 296 295 295 295 294 293 293 293 294 294 295 294 294 293 293 293 293 292 292 292 292 292
299 299 299 300 300 300 300 301 301 301 301 302 302 302 302 303 302 303 303 303 303 303 303 303 303 303 303 303 303 303 304 304 305 306 306 307 307 307 307 307 306 306 306 307 306 307 307 306 304 302 300 298 297 297 297 297 297 297 296 296 296 297 296 296 296 295 294 293 292 293 293 294 294 294 294 294 293 293 292 292 292 291 291 291 291
299 299 299 299 300 300 300 301 301 301 301 301 302 302 302 302 303 302 303 303 302 302 302 302 302 302 302 303 303 303 303 304 305 306 306 306 306 306 307 306 306 305 306 306 305 305 305 304 303 301 299 298 298 298 298 297 297 297 297 296 296 296 295 295 294 293 292 292 293 293 294 294 294 294 293 293 292 292 292 291 291 291 291 291 291
300 299 300 300 300 300 301 301 301 301 301 302 302 302 302 302 302 302 302 301 301 301 302 302 302 302 302 303 303 303 303 304 305 305 305 306 306 306 306 305 304 304 305 306 305 305 304 302 301 300 299 298 298 298 297 297 296 296 296 296 296 295 294 293 292 291 292 293 293 293 293 293 293 293 292 292 292 291 291 291 291 291 291 291 290
300 300 300 300 301 301 301 301 301 301 301 301 301 302 302 302 302 302 301 301 302 302 302 302 302 302 302 303 303 303 304 304 304 305 305 305 305 305 305 305 304 305 305 304 303 303 302 301 300 299 298 298 298 298 297 297 296 296 296 296 295 294 293 292 291 291 292 293 293 293 293 293 292 292 292 292 291 291 291 291 290 290 290 290 290
Wind_Speed
24 26 26 23 22 21 22 20 18 21 20 18 18 16 15 14 12 11 11 9 10 12 11 9 6 6 6 4 6 5 2 2 6 6 5 3 3 4 3 3 3 3 4 2 2 1 2 2 1 1 2 1 2 4 7 11 14 16 17 17 16 15 13 10 8 10 10 10 12 12 11 11 11 11 12 13 13 11 11 13 15 15 15 14 13
23 26 28 23 21 23 22 21 20 21 21 20 20 19 17 15 13 11 11 10 11 11 10 9 5 5 6 5 5 5 4 5 5 2 2 3 3 3 4 6 6 5 3 5 5 2 1 2 2 2 3 2 1 4 6 9 13 15 17 17 16 15 14 13 12 12 11 10 12 13 12 12 12 12 13 14 14 14 12 11 12 14 14 15 15
23 23 26 21 20 24 23 23 23 21 23 23 22 21 19 17 15 12 11 11 12 11 12 12 9 8 8 8 7 6 8 9 3 5 6 6 5 4 5 7 7 8 7 5 7 5 3 2 2 3 3 3 3 4 5 5 10 13 15 16 16 16 15 14 14 13 11 10 11 12 10 9 10 10 10 9 10 12 13 11 9 10 10 11 12
26 24 24 22 21 25 25 24 25 25 25 25 25 24 22 20 17 14 13 12 12 13 13 12 11 11 10 10 10 7 6 6 1 3 6 6 6 6 6 6 8 9 8 6 6 8 6 5 4 3 4 4 5 5 5 3 5 8 11 13 14 14 13 14 14 13 12 11 10 9 8 6 6 5 3 3 4 6 9 10 9 8 7 8 9
26 25 24 23 23 26 26 24 25 28 27 27 28 27 26 24 19 16 16 14 13 13 13 11 11 10 8 9 10 6 5 5 3 5 6 7 6 7 8 7 8 10 10 7 7 8 9 8 6 5 6 6 5 6 7 5 2 3 5 8 9 10 11 13 13 13 13 13 10 8 6 5 6 4 2 2 3 4 5 6 6 6 6 7 8
25 26 26 25 25 24 26 28 28 29 29 29 29 29 28 26 22 21 20 17 15 14 13 12 11 9 8 10 10 9 10 8 6 7 6 5 5 7 8 8 9 10 10 9 9 9 9 9 8 6 7 8 7 8 8 6 4 2 1 2 4 6 8 10 11 10 11 13 12 10 7 5 5 4 3 4 4 6 6 6 7 7 6 7 7
25 24 24 24 25 24 24 29 31 30 31 31 30 30 29 28 26 24 22 19 17 15 14 14 12 11 11 13 12 13 13 10 9 8 6 4 5 7 8 9 10 10 10 8 9 10 10 10 10 8 7 8 10 11 11 10 8 8 7 5 4 3 4 7 6 6 7 8 11 12 11 9 7 6 7 8 7 7 8 8 9 9 9 8 7
23 24 25 23 27 29 27 27 29 29 30 31 34 33 31 30 28 26 23 21 18 16 16 15 13 14 15 15 14 13 12 12 10 9 6 5 7 8 9 9 10 9 9 9 8 9 11 13 14 12 10 8 8 9 10 11 11 10 9 7 6 6 5 5 5 4 3 2 2 6 6 6 7 9 10 10 9 9 9 9 10 10 11 10 9
18 24 26 25 30 33 29 25 26 28 30 33 37 36 33 32 29 27 25 22 20 18 17 16 15 16 17 17 15 13 12 11 10 8 7 7 9 8 7 7 8 8 9 10 10 10 11 13 14 14 12 8 7 8 7 8 9 10 10 10 8 6 6 9 10 8 8 9 7 4 3 2 2 3 5 6 6 6 6 7 9 10 10 10 9
7 11 13 17 27 30 26 25 27 29 31 33 35 35 34 34 31 29 27 24 22 20 19 18 16 17 18 19 16 14 12 11 11 9 8 9 9 8 6 7 8 8 9 10 10 11 11 12 13 13 12 10 9 9 8 8 8 8 8 9 9 8 6 6 7 6 6 8 7 6 5 4 5 5 3 3 3 4 5 5 6 8 10 11 11
2 2 3 3 13 18 20 25 27 28 31 32 33 32 33 34 34 31 28 26 24 22 20 18 18 18 19 21 18 14 13 14 13 10 10 10 9 7 6 6 7 8 9 9 10 10 10 11 12 12 12 12 12 12 11 11 11 10 9 8 7 7 6 5 4 4 4 5 6 6 7 6 4 4 2 2 1 2 5 6 7 7 9 10 11
2 2 4 3 4 10 15 19 22 24 27 29 32 32 33 35 35 33 31 28 26 25 22 20 19 19 19 22 19 14 15 16 14 10 10 10 9 9 7 4 5 6 7 8 9 9 9 9 10 10 11 12 12 12 11 11 11 11 11 9 9 8 6 5 4 3 3 3 4 6 7 7 7 7 7 6 5 5 6 5 6 7 8 9 10
1 3 5 4 2 8 13 18 21 23 25 27 29 31 33 36 37 36 33 31 29 26 24 21 20 20 20 22 20 16 17 17 13 11 11 10 11 11 8 5 3 4 6 7 7 8 9 8 8 8 8 9 9 9 10 9 9 9 9 9 8 7 6 5 5 4 4 4 3 3 4 4 4 4 5 4 2 2 3 4 4 6 8 9 8
4 5 6 5 2 3 7 14 19 23 25 25 27 30 30 31 33 35 34 32 31 28 25 23 22 21 21 22 22 19 19 17 14 12 12 11 11 11 9 7 4 2 3 5 6 7 8 8 8 7 7 7 7 7 8 8 7 7 7 7 7 6 5 4 3 3 3 3 3 2 2 1 1 1 3 3 2 1 1 3 5 6 7 7 8
6 7 8 7 5 4 2 5 10 18 23 22 25 28 26 25 26 29 33 33 31 29 26 24 23 23 21 22 23 20 18 18 15 13 13 12 11 11 10 8 6 4 3 2 4 5 7 7 6 7 7 7 6 6 6 7 6 6 6 6 6 5 5 4 4 4 3 4 3 2 1 1 1 2 2 2 3 4 3 4 4 6 8 8 7
6 8 9 9 8 6 4 1 2 12 21 23 24 24 22 23 22 22 28 32 31 29 26 25 24 24 21 21 22 19 17 17 16 13 12 12 12 11 10 9 8 7 6 2 2 3 4 6 5 6 6 6 6 5 5 6 6 6 6 5 5 5 5 5 5 5 6 6 5 5 5 4 4 4 4 5 4 5 6 6 4 4 8 10 10
8 8 8 9 9 7 5 3 0 6 14 18 19 17 17 22 22 19 21 26 28 27 26 25 24 24 22 21 21 19 17 16 16 14 12 13 13 11 10 11 9 9 9 6 4 3 2 3 4 5 5 5 5 5 4 4 4 5 6 5 6 6 6 6 6 7 7 7 7 7 6 6 5 4 4 5 5 5 6 6 6 4 5 7 9
9 8 8 10 11 9 7 4 1 1 6 11 12 12 13 16 18 19 18 19 21 23 25 25 24 23 22 22 21 20 17 15 15 14 13 13 13 12 11 12 11 10 11 10 8 6 4 2 2 3 4 4 4 4 3 3 3 3 4 4 5 5 5 6 6 6 7 7 7 7 6 6 5 3 2 3 3 3 3 4 5 6 6 6 7
9 9 9 10 12 11 9 6 4 2 1 7 9 8 9 10 12 17 19 16 15 17 20 22 22 22 22 22 21 20 18 16 14 15 14 14 14 13 11 12 12 12 13 13 11 8 6 5 4 3 2 3 3 3 3 3 3 3 3 3 3 3 4 5 5 4 5 5 5 5 5 7 6 5 5 5 5 4 4 4 4 4 5 6 6
10 10 10 10 11 11 12 11 9 7 5 5 7 6 6 7 9 13 17 16 15 16 16 17 18 19 19 20 20 19 18 17 16 16 15 15 16 15 13 12 13 14 15 15 14 11 9 7 7 6 5 4 4 4 4 5 5 4 4 4 3 2 2 2 3 3 2 2 2 3 4 6 6 7 6 6 7 8 9 9 8 8 7 6 7
11 11 11 11 10 11 13 11 10 10 10 8 7 6 8 9 10 13 16 15 17 18 16 14 15 15 16 18 18 17 17 18 19 18 17 17 17 17 16 15 14 14 15 16 15 13 12 11 10 9 8 7 7 7 7 7 8 7 6 6 4 3 3 4 3 2 1 1 1 2 2 3 5 6 6 5 5 8 10 11 12 12 10 9 9
12 12 12 12 11 12 12 11 11 11 9 9 12 10 11 12 11 14 17 14 15 17 16 16 16 14 13 14 16 17 17 17 19 20 20 20 19 18 19 18 17 16 15 16 16 14 13 13 13 13 13 11 10 10 10 10 10 10 9 8 7 6 5 6 6 5 4 3 1 1 3 4 5 6 6 5 3 3 5 5 6 7 6 7 9
13 13 13 13 13 13 13 13 12 10 10 12 14 16 16 17 16 17 17 15 13 15 16 15 15 14 12 12 13 16 17 16 18 19 19 20 21 20 20 20 20 19 17 16 17 16 14 15 15 15 16 16 14 13 12 12 12 12 12 11 11 9 8 8 9 7 6 6 5 3 4 6 6 6 7 7 5 4 3 3 5 7 8 9 10
12 13 13 13 14 15 14 14 12 10 9 11 14 15 16 18 21 22 22 21 19 18 15 13 14 15 15 14 13 13 14 16 19 19 17 17 19 20 20 20 20 19 18 16 17 18 17 16 17 18 18 18 17 16 16 15 15 14 15 15 13 12 11 11 10 8 6 8 9 7 6 7 8 8 8 8 6 6 5 6 8 9 8 8 9
11 12 13 12 13 13 13 14 13 13 11 10 11 13 12 12 15 18 20 21 22 21 17 15 16 16 14 14 13 11 12 14 18 19 19 19 20 19 18 18 17 17 18 17 18 19 19 18 19 20 20 19 19 19 19 19 18 17 17 17 16 15 14 13 12 10 8 10 11 10 8 9 9 9 9 8 6 7 8 10 11 11 10 10 11
10 10 11 11 12 12 13 13 13 14 13 13 11 10 9 8 9 11 13 13 15 17 16 16 17 16 14 12 11 11 13 15 16 18 20 20 21 21 18 17 18 19 20 20 21 22 21 20 20 20 21 21 20 20 20 21 21 20 20 20 19 17 15 14 13 12 11 12 12 12 11 11 11 10 10 9 9 10 12 13 13 13 12 11 12
10 9 9 10 11 12 13 13 13 13 13 13 13 12 11 11 10 9 10 10 11 13 13 13 14 14 13 12 11 11 12 12 12 14 15 15 17 19 18 17 19 22 24 24 25 25 23 22 23 23 23 22 22 22 21 22 23 23 22 22 20 19 17 16 15 14 14 14 12 12 12 12 12 11 11 11 12 12 13 14 14 14 14 13 14
10 9 10 10 11 12 13 13 13 14 14 14 14 14 13 13 13 13 13 13 12 12 10 9 10 10 9 9 9 9 8 6 6 6 7 7 7 8 7 7 10 15 19 20 21 21 21 23 25 26 26 25 25 25 24 24 25 25 24 23 22 21 20 19 18 18 17 16 15 13 13 13 13 12 12 12 13 14 15 15 15 15 15 16 16
12 11 10 9 9 11 11 13 13 13 14 14 14 14 13 13 13 13 14 15 15 14 11 8 7 7 7 6 4 4 3 3 3 3 4 5 6 6 6 7 8 10 13 16 17 16 17 20 24 27 27 26 28 30 29 28 28 27 26 25 25 24 23 21 21 21 19 18 17 15 14 14 14 13 13 14 15 16 17 16 15 16 16 17 17
12 10 10 7 7 8 9 11 12 12 13 13 12 13 13 13 13 12 12 13 13 14 13 11 10 9 6 4 3 1 1 0 1 3 4 4 6 8 9 10 10 9 11 13 15 14 16 18 21 24 25 27 29 32 32 31 29 28 27 28 27 26 24 22 23 23 21 19 17 15 14 14 13 13 13 15 18 19 18 17 17 16 16 16 17
13 11 10 8 5 5 7 8 10 10 11 12 11 11 11 11 11 10 10 10 9 9 9 8 6 4 3 2 2 3 3 2 2 1 1 1 2 3 5 6 7 8 9 10 12 13 15 17 19 20 22 26 28 30 32 32 29 29 30 30 29 26 24 22 22 21 19 18 15 13 13 14 14 14 15 17 19 19 18 18 18 18 18 17 17
15 13 10 11 8 7 7 6 7 7 8 9 8 9 9 8 7 6 5 4 4 3 4 5 7 6 4 5 6 4 3 3 2 1 1 2 2 3 4 6 7 8 8 9 10 12 14 17 19 20 21 24 26 27 30 32 31 30 31 31 30 27 25 23 21 19 17 16 15 13 13 14 15 16 18 19 19 19 18 19 19 20 20 21 22
19 14 11 13 11 9 8 5 4 5 6 8 7 8 9 7 6 5 3 1 1 1 2 2 3 2 3 5 5 3 2 3 4 5 5 6 6 5 6 6 6 8 9 11 12 12 12 14 18 21 22 24 26 27 29 31 32 33 34 34 32 30 27 25 22 20 18 16 13 11 12 13 16 18 19 19 19 18 17 17 18 20 22 23 25
13 10 11 13 10 11 9 4 2 2 3 5 5 6 7 6 5 6 5 4 3 2 2 1 2 2 2 1 3 3 2 2 4 6 7 8 8 6 6 8 9 9 10 13 15 13 11 11 13 19 22 23 24 26 28 29 32 34 35 35 33 30 27 24 21 19 17 13 11 12 14 14 16 17 17 16 15 14 14 15 17 20 22 24 26
6 2 7 7 9 12 9 4 2 1 3 3 3 4 5 5 6 7 6 5 5 5 5 4 3 3 2 1 2 2 3 5 6 7 8 9 9 7 7 9 10 10 10 12 14 15 14 11 11 16 20 20 22 23 25 27 30 32 34 34 32 28 25 23 20 18 16 15 15 16 16 16 16 16 16 17 16 16 18 20 21 23 24 26 27
6 9 9 9 8 7 5 3 1 3 4 4 3 3 4 5 6 6 5 5 5 5 5 5 5 4 4 4 5 4 4 5 6 8 9 8 8 7 7 9 11 11 10 11 12 14 16 15 14 16 18 20 22 22 22 25 28 30 31 31 29 27 26 25 23 20 19 18 16 15 15 15 16 16 16 17 18 20 22 24 25 27 29 29 29
7 9 7 4 3 0 2 2 3 4 4 4 4 3 4 5 5 6 6 6 6 6 6 6 6 5 5 6 6 5 5 5 5 6 7 7 8 8 7 8 10 11 11 11 12 13 14 15 18 20 18 18 21 22 23 24 26 27 28 28 29 29 28 26 22 19 17 15 14 14 14 15 15 15 17 18 19 22 24 26 28 30 30 30 30
3 4 0 3 4 5 6 5 4 4 6 7 7 6 6 5 6 6 7 7 7 7 7 6 6 5 6 7 6 6 6 6 7 7 7 8 10 10 8 8 10 12 12 13 13 12 13 16 21 22 19 18 18 20 21 22 23 26 28 29 31 30 27 22 17 14 12 12 11 12 13 15 16 18 19 21 22 25 26 27 29 30 31 32 33
4 3 4 7 7 6 7 7 8 8 9 9 8 8 8 8 8 8 8 8 8 8 7 7 7 7 7 7 8 8 9 10 10 9 10 11 12 11 9 8 10 12 13 14 13 12 15 19 22 21 19 17 17 18 19 20 22 26 28 29 28 26 22 16 11 10 10 10 9 10 13 16 18 20 21 23 24 25 27 28 30 32 34 35 36
8 7 8 8 8 7 6 8 12 13 12 11 10 10 11 11 10 10 10 10 10 10 9 9 9 9 9 9 9 10 10 10 10 10 12 13 14 13 11 10 11 13 13 13 13 14 17 21 22 20 19 18 18 18 18 19 22 24 26 26 23 20 16 13 10 10 11 10 9 11 15 17 19 21 22 23 25 26 28 30 32 34 36 37 38
12 14 15 14 12 11 10 12 14 14 12 12 14 14 14 13 13 13 13 12 12 11 11 11 11 11 12 12 12 12 12 11 10 11 13 14 14 15 14 12 12 13 13 14 15 17 19 21 21 21 21 19 18 17 15 16 20 23 24 21 17 16 16 15 14 13 13 12 10 12 17 18 19 22 23 25 27 29 31 33 34 36 38 39 40
16 18 18 16 15 15 15 16 17 15 14 15 16 16 17 16 16 15 14 14 13 13 13 14 14 14 15 14 14 14 14 14 14 14 15 15 16 16 15 13 13 14 16 18 19 19 20 21 21 23 23 19 15 14 13 16 20 22 19 16 14 15 16 17 16 15 15 15 12 13 17 20 21 24 26 28 30 32 34 36 37 37 37 37 37
19 19 19 19 19 19 19 20 20 19 18 18 19 19 20 20 19 18 17 16 16 16 16 16 16 16 16 17 17 17 16 17 17 17 17 17 16 15 14 13 14 17 20 21 21 20 21 22 22 22 20 16 13 13 15 17 18 18 15 13 13 13 14 15 15 15 16 16 14 15 19 22 24 25 27 29 31 32 33 33 32 31 30 29 28
21 21 20 21 22 22 22 23 23 22 22 21 22 23 22 22 21 21 20 19 19 18 18 18 18 19 19 19 19 18 18 19 19 18 18 17 16 14 12 13 16 19 21 21 21 19 20 22 21 20 18 15 14 16 17 16 14 13 12 12 11 10 10 11 12 12 13 14 15 17 20 22 22 24 25 27 27 27 25 23 23 22 21 20 20
23 23 23 23 24 25 25 26 26 25 24 23 23 24 24 23 22 21 20 20 19 19 20 20 20 19 19 19 18 18 18 18 18 18 17 17 16 15 15 17 19 19 18 19 19 19 19 20 21 19 17 16 17 18 17 15 13 11 10 9 8 7 7 8 9 11 12 13 15 16 18 18 19 20 21 21 21 20 20 19 19 18 17 18 18
26 26 26 26 27 27 28 28 28 27 26 25 25 25 26 26 25 23 23 22 22 23 23 22 22 21 20 19 18 17 17 17 17 17 17 17 17 17 18 19 19 17 17 18 19 20 20 21 20 18 17 18 18 17 14 13 12 10 9 8 7 6 7 8 9 10 11 13 13 15 16 17 17 16 16 17 18 19 19 19 17 16 16 17 18
29 28 28 28 29 30 29 28 27 27 26 25 25 26 26 27 26 26 26 26 27 27 25 24 23 22 21 20 20 18 17 17 17 17 17 17 17 17 18 18 17 15 16 18 19 20 20 21 21 19 19 19 18 16 14 13 13 12 10 8 7 5 5 7 8 9 11 12 15 17 17 15 13 13 14 15 15 17 18 17 17 16 17 17 18
30 30 29 28 27 28 28 28 27 27 26 24 24 25 25 25 26 26 26 26 26 26 26 27 26 22 20 21 22 20 19 19 18 18 18 17 16 16 15 14 12 13 15 18 19 19 21 22 22 21 22 21 19 17 16 14 11 10 8 5 4 5 6 7 8 10 11 13 15 15 12 10 10 12 14 15 14 15 16 17 17 17 18 18 19
30 30 29 27 26 27 27 28 28 27 26 25 25 26 26 25 25 27 28 28 27 25 26 28 28 26 23 22 22 22 21 19 18 20 21 20 19 18 16 14 13 14 16 18 19 19 22 23 24 24 24 23 21 17 14 11 9 7 6 4 4 5 6 7 8 10 11 11 10 7 7 9 12 14 15 15 14 15 16 17 18 19 20 21 22
29 29 28 28 28 28 28 29 29 28 28 28 28 28 27 27 26 27 28 29 28 28 27 26 25 26 26 24 23 23 22 20 19 21 22 21 21 21 19 17 15 15 18 20 19 20 24 27 27 25 22 20 19 16 13 11 9 8 6 5 4 4 5 7 8 9 8 6 5 7 8 11 14 14 14 14 15 16 18 19 20 21 22 23 24
27 27 27 26 26 25 26 27 28 28 28 28 28 28 27 27 26 26 27 27 28 28 28 26 25 25 26 25 25 23 21 21 22 24 24 22 22 20 18 15 13 14 18 19 20 23 26 26 26 24 21 19 18 15 12 10 8 6 5 3 2 3 4 5 5 5 4 5 7 9 11 12 13 13 13 14 16 18 19 21 23 24 24 25 26
Wind_Direction
176 177 176 176 175 180 183 179 175 173 174 174 170 175 177 167 170 163 148 145 129 110 90 89 94 88 100 96 92 102 46 74 132 148 170 156 108 115 107 82 93 117 136 132 59 337 227 185 188 143 161 194 203 206 210 216 213 204 206 206 201 202 207 219 242 254 254 258 263 258 249 248 254 259 253 247 244 241 240 228 219 222 228 221 213
171 170 175 181 179 183 185 181 181 178 177 178 176 183 186 178 184 177 159 150 125 117 120 128 136 112 110 108 100 102 93 120 139 98 68 90 92 105 93 77 61 57 95 122 108 73 337 166 159 126 143 150 146 170 181 208 214 208 210 214 214 215 223 236 243 244 242 246 254 253 252 255 260 266 265 261 252 239 233 231 231 237 239 235 229
169 171 177 184 185 183 186 188 188 184 181 180 181 188 191 189 192 184 170 156 139 143 148 147 158 151 141 143 145 144 137 142 132 50 62 72 73 78 96 105 88 60 53 87 119 108 56 51 113 126 143 137 123 139 145 188 214 219 220 220 224 227 229 236 241 241 236 233 241 245 253 264 270 272 269 268 260 243 235 236 245 247 241 246 252
172 178 180 183 190 188 189 191 185 184 188 187 187 190 190 194 197 185 177 167 154 158 158 156 164 163 164 167 170 183 177 171 158 58 74 71 71 75 86 107 113 108 100 97 115 120 108 91 83 95 116 102 82 91 100 128 197 214 224 225 230 234 232 233 234 234 230 224 228 238 245 256 269 276 275 269 257 243 238 240 249 249 248 267 276
175 181 183 183 188 190 194 197 189 190 197 196 194 193 189 193 196 185 179 175 166 165 161 156 160 167 172 169 174 178 158 152 115 79 77 71 71 78 86 94 106 124 125 107 102 120 130 124 104 95 105 97 71 75 82 68 93 184 217 218 220 226 225 224 226 226 222 219 221 229 227 232 249 255 267 275 252 244 239 237 250 258 266 280 282
180 181 180 179 180 187 198 204 202 201 203 201 201 199 191 189 191 184 180 177 172 171 164 155 154 161 155 146 148 130 117 121 111 103 106 98 85 83 90 95 100 113 117 113 115 117 123 128 125 125 128 133 139 135 120 93 74 99 130 184 197 216 216 213 218 218 214 216 220 224 224 229 244 245 261 285 277 273 273 266 266 267 274 279 273
176 181 183 188 188 192 199 203 206 207 206 204 207 206 194 187 185 183 183 180 175 173 165 158 152 144 133 126 122 119 126 141 142 145 155 134 102 94 90 92 96 103 109 117 128 129 130 127 118 107 108 133 151 150 146 145 138 121 103 86 88 112 189 206 216 211 211 224 226 226 231 241 254 258 270 286 289 288 286 284 283 276 276 281 273
177 178 180 193 200 202 204 208 212 213 210 209 214 212 197 189 187 185 186 182 178 175 166 162 152 134 128 126 125 135 155 165 163 165 167 127 98 94 88 88 94 99 104 106 114 122 125 122 115 106 99 111 140 150 157 168 165 150 139 133 117 100 116 130 104 102 120 108 201 221 227 242 259 262 270 280 280 281 285 289 293 285 275 277 279
194 186 185 194 202 208 214 221 224 223 219 215 219 217 201 191 189 187 189 185 179 177 169 165 153 135 135 135 138 161 176 171 166 164 151 121 110 115 113 105 103 103 104 101 101 106 113 121 123 121 115 113 129 140 149 163 170 173 170 167 163 148 128 119 107 101 98 90 85 72 58 27 342 299 288 292 287 293 303 309 314 307 291 279 279
219 204 203 199 199 207 214 215 217 220 215 209 214 213 201 193 189 187 189 186 181 178 173 168 154 142 141 140 152 179 177 160 163 162 148 137 138 145 136 113 107 99 96 97 98 102 106 112 118 121 122 116 110 111 114 121 128 141 154 162 169 173 167 150 142 144 133 117 110 98 93 81 57 56 38 3 352 344 331 318 321 319 310 299 289
307 272 292 204 195 204 205 204 208 210 208 205 206 206 200 195 190 187 189 187 182 179 177 171 158 150 146 146 163 184 167 159 172 170 157 155 151 144 130 115 111 100 95 96 96 101 105 108 113 116 118 114 107 104 104 108 108 107 113 121 133 148 158 161 169 181 172 163 167 159 148 146 137 132 158 188 211 297 290 290 303 312 311 307 300
349 349 8 26 223 224 216 214 216 211 209 209 205 204 204 200 192 187 189 188 183 180 179 174 163 157 152 152 167 180 165 170 186 177 166 161 146 145 154 153 130 116 111 106 100 102 105 108 113 115 116 115 112 109 108 109 110 110 109 108 109 114 118 121 123 118 115 142 178 181 179 190 198 204 222 234 243 263 278 297 311 311 301 294 298
54 42 40 36 279 247 233 227 227 222 216 214 211 207 205 202 195 187 187 188 184 182 180 178 169 162 160 158 167 178 170 177 191 179 172 168 153 159 175 182 163 134 125 120 114 113 110 108 110 112 116 115 114 116 117 114 113 116 116 113 110 108 104 103 105 101 99 108 137 168 185 204 207 208 219 222 246 299 321 321 296 289 294 302 320
66 58 46 32 14 303 252 231 230 228 222 217 215 212 203 201 196 187 188 188 185 183 181 180 174 166 165 164 170 180 176 180 190 180 176 175 168 170 178 190 198 172 135 124 124 124 119 115 113 112 112 111 113 118 118 116 117 121 119 113 109 106 101 94 92 92 95 101 117 152 197 226 219 208 208 199 213 250 302 304 297 303 313 328 346
67 63 51 31 25 19 331 244 232 219 212 209 215 217 208 203 200 190 188 188 186 185 183 182 177 169 170 169 173 182 181 179 185 185 179 178 183 181 177 196 211 209 212 140 124 128 122 123 124 122 121 118 118 121 125 127 127 124 117 112 106 98 93 88 80 75 72 75 77 76 71 31 347 326 305 284 272 270 265 279 314 343 338 335 337
74 66 54 39 34 35 49 55 199 192 196 202 213 221 214 207 209 200 192 189 186 185 184 183 179 172 173 175 176 181 182 177 180 191 186 177 193 195 176 191 212 219 236 225 161 151 125 129 135 131 130 129 127 128 132 136 136 131 125 119 114 111 107 100 89 84 80 76 70 59 57 51 30 9 350 344 335 321 309 301 314 351 342 335 332
81 75 68 56 50 51 67 73 145 187 196 208 215 220 214 207 214 215 198 187 186 187 187 185 181 175 175 178 178 179 181 177 175 192 197 179 197 210 185 186 208 222 235 240 230 224 174 147 145 141 143 139 138 141 137 141 141 135 131 128 125 122 115 106 102 100 95 91 87 79 72 65 43 25 11 359 350 341 336 329 323 323 328 329 328
90 87 84 73 69 70 75 81 21 236 209 210 208 210 211 204 211 220 206 184 182 188 188 185 182 178 178 180 180 178 180 181 177 189 199 185 193 211 199 192 199 215 231 241 243 249 261 251 186 158 158 157 156 154 154 162 168 153 141 136 128 124 122 119 116 109 103 98 91 85 85 80 59 44 61 41 12 356 351 344 327 312 304 303 307
101 95 94 89 83 81 80 87 85 58 164 189 183 187 206 205 206 216 208 188 180 184 188 188 183 181 182 182 182 179 179 183 181 188 198 195 194 202 207 206 201 207 225 238 245 254 267 273 270 256 208 197 194 184 186 201 211 207 193 175 151 145 144 134 129 121 112 103 92 83 77 67 49 42 51 39 33 43 33 14 357 337 312 295 297
107 102 101 101 102 109 107 99 94 84 89 142 159 161 186 191 194 203 198 190 185 178 178 186 186 186 187 185 184 183 183 184 184 189 197 202 203 201 203 213 212 209 220 235 245 252 261 267 268 273 269 255 250 239 227 229 234 238 240 235 219 204 209 182 163 156 142 114 90 81 68 58 40 31 33 19 12 14 10 8 6 2 354 332 322
108 108 109 106 112 126 127 119 112 109 101 103 122 151 167 160 167 183 182 185 192 181 169 177 187 192 194 189 184 185 189 191 190 192 194 197 205 206 201 208 215 214 221 233 240 245 255 260 259 263 267 264 262 261 257 251 248 247 249 250 251 253 252 249 245 242 246 270 16 8 5 28 29 26 26 21 11 351 341 351 354 352 355 348 332
116 115 115 112 110 112 119 122 122 127 128 115 109 124 151 153 154 171 173 174 188 184 173 174 179 184 192 194 192 191 194 199 200 204 207 206 210 211 204 204 208 210 218 232 238 240 244 249 252 256 262 265 265 263 261 258 257 256 254 255 264 271 260 251 260 277 278 266 264 274 286 320 354 5 5 12 17 302 290 320 328 315 311 305 300
123 119 117 119 118 114 113 115 120 132 149 149 133 122 134 146 145 152 159 159 169 177 177 179 177 177 182 187 193 196 198 203 205 207 215 219 219 217 210 204 205 209 214 225 237 241 241 244 246 246 251 259 264 267 266 261 258 257 257 258 263 268 264 255 260 274 275 270 278 277 267 291 320 336 341 351 353 327 307 292 273 275 284 292 301
128 128 126 125 123 121 118 114 116 120 134 158 163 149 143 144 142 145 148 150 159 165 168 177 179 180 185 187 189 193 197 206 210 211 218 221 221 222 218 213 213 217 217 218 230 240 243 246 244 239 241 248 254 262 269 269 263 257 258 261 261 260 257 254 259 263 252 253 272 287 284 288 305 320 326 336 340 331 320 298 286 287 288 288 294
135 134 135 133 126 122 119 117 116 115 119 137 165 175 176 165 155 152 149 149 156 156 157 173 182 183 189 195 199 200 207 216 219 219 221 219 221 226 227 227 229 229 225 224 230 235 239 244 244 241 239 241 245 252 259 265 267 261 258 259 259 258 253 250 254 256 240 237 256 273 276 275 285 300 310 316 311 297 292 293 292 289 283 273 268
140 136 134 131 126 120 117 119 119 119 119 117 124 147 166 169 171 176 173 171 169 162 161 171 178 182 189 200 210 216 221 226 225 224 224 225 230 234 236 239 242 242 241 241 243 241 236 236 239 242 242 241 243 246 249 255 261 261 258 255 254 253 250 247 248 247 241 241 252 262 263 264 271 284 293 295 293 292 295 299 298 294 290 281 272
145 141 140 132 128 125 121 120 120 121 121 118 116 116 118 121 130 153 172 179 181 179 175 171 172 180 192 205 214 214 216 221 222 224 229 233 235 236 239 246 251 253 252 249 251 249 242 237 238 239 239 239 239 242 245 248 252 255 256 252 248 244 244 245 244 241 246 254 261 262 260 262 268 278 286 289 292 296 299 301 300 297 292 285 280
167 163 156 143 135 130 128 126 124 122 120 118 118 116 113 115 115 122 131 132 140 154 162 168 169 166 167 178 187 186 187 193 194 206 224 232 230 228 231 241 249 254 252 250 254 254 246 243 242 239 237 237 239 240 241 244 247 248 249 247 244 241 241 243 243 243 248 258 265 268 267 267 273 283 290 291 293 297 300 300 297 294 290 287 285
182 175 158 148 143 137 136 134 131 129 126 124 125 124 123 122 120 121 125 127 129 129 125 130 141 142 143 147 154 163 172 195 219 246 260 261 266 272 269 266 267 263 253 249 253 253 247 245 244 242 243 242 242 242 243 245 244 242 242 242 241 241 244 248 249 248 249 255 261 267 269 271 280 290 293 293 296 299 301 299 296 293 291 290 289
210 187 163 155 149 141 140 138 135 135 135 132 132 132 130 128 126 124 123 125 127 124 121 121 121 123 128 127 124 139 140 120 299 298 301 298 288 282 276 272 269 262 252 251 253 251 249 249 248 249 250 246 243 245 248 247 242 237 237 238 237 239 246 251 250 247 250 256 261 266 271 274 281 287 291 295 297 300 301 300 297 296 293 291 290
230 208 179 173 176 160 150 143 141 141 141 141 141 141 143 148 150 148 143 142 142 140 142 150 158 161 167 196 223 210 191 187 171 169 309 345 299 270 264 254 250 254 257 260 263 262 259 257 256 256 254 250 247 246 246 245 239 233 234 235 234 239 244 245 243 244 249 255 263 272 277 278 282 288 294 296 296 298 300 300 300 299 297 296 296
250 245 197 181 199 190 160 148 151 152 150 150 154 155 157 165 173 175 181 181 183 205 225 241 255 258 235 220 226 226 224 235 247 261 267 272 269 266 263 252 253 266 271 266 267 271 270 265 262 260 257 255 254 248 242 240 236 233 233 232 233 239 241 236 235 238 243 253 269 280 277 275 283 292 298 299 298 300 302 302 302 303 304 304 304
250 248 202 191 199 174 153 157 162 160 155 148 152 159 155 151 150 157 172 107 59 330 291 277 261 229 182 188 195 198 223 252 285 305 309 310 310 299 286 275 264 268 272 272 275 276 274 271 265 260 257 254 253 248 242 239 236 233 233 232 234 238 238 233 232 235 242 254 267 270 265 269 281 291 296 297 297 301 303 301 299 299 301 303 304
264 240 204 204 188 145 141 164 153 145 165 153 153 166 167 164 159 157 161 153 140 168 174 126 130 148 152 169 168 177 210 249 289 306 307 309 312 297 272 264 258 255 258 266 273 277 277 275 264 258 258 256 253 250 248 244 238 233 231 231 233 235 235 235 236 240 247 250 241 238 247 260 272 281 286 287 289 292 291 287 287 290 295 298 300
337 177 165 160 136 123 122 143 160 206 246 224 196 180 178 181 176 172 173 171 171 181 181 176 178 172 180 205 188 216 272 299 314 319 315 311 311 298 273 262 260 257 251 258 272 280 284 283 264 252 253 256 254 251 249 243 235 231 230 231 231 232 234 237 238 235 238 241 239 245 259 268 271 272 270 271 275 277 275 276 280 286 291 293 294
74 111 115 103 110 120 115 122 192 300 284 255 223 191 187 188 185 191 200 193 190 199 204 202 197 194 203 203 198 222 271 296 310 317 319 317 309 292 275 267 267 264 254 251 258 268 278 282 270 255 251 252 252 250 246 239 233 232 234 232 230 232 236 239 239 238 243 252 260 270 276 277 278 277 273 273 277 278 278 280 284 289 293 294 295
84 107 116 98 81 198 219 217 258 280 275 271 270 250 228 215 213 218 217 210 210 216 218 215 214 218 215 208 212 230 247 262 283 300 307 305 299 291 278 265 265 266 263 256 251 253 263 268 265 262 258 252 250 250 248 243 240 242 243 239 236 238 240 241 243 247 253 260 268 275 278 277 278 275 272 273 276 276 278 282 286 290 294 295 296
32 64 74 269 286 280 268 268 276 275 276 281 278 269 257 241 238 238 231 228 232 231 227 224 226 231 226 225 232 235 236 249 264 276 283 286 294 301 292 268 261 262 262 260 258 257 254 253 257 261 260 253 250 251 250 248 248 248 246 241 239 240 240 240 245 254 261 268 272 272 275 278 275 271 271 274 276 277 279 283 286 289 290 291 294
299 304 279 268 273 270 258 266 279 279 277 278 273 271 268 258 253 250 243 240 240 238 239 239 240 244 246 248 246 241 246 261 271 279 284 288 297 304 295 272 263 260 258 258 261 259 253 252 255 257 254 250 246 246 250 253 254 250 243 236 236 237 236 236 243 258 269 279 282 273 269 272 272 271 275 277 276 277 279 281 283 285 286 289 292
306 302 308 311 315 309 279 270 276 274 268 267 270 274 274 268 263 257 253 252 251 249 249 249 249 254 257 258 256 254 258 264 265 269 278 285 293 297 290 271 258 255 256 258 257 249 245 250 254 252 248 243 239 244 253 257 252 246 238 232 231 231 227 219 218 235 246 251 260 265 264 266 270 272 274 275 275 277 279 280 281 283 285 287 289
306 307 315 319 315 305 291 283 284 284 278 275 274 271 269 269 267 264 260 258 255 252 252 252 253 258 261 262 262 260 258 255 250 254 263 272 281 287 285 273 257 250 250 248 247 243 242 245 248 246 243 240 242 252 260 252 241 234 231 229 223 216 213 208 206 215 226 228 240 263 269 269 271 271 272 274 276 277 278 278 280 282 283 285 287
292 296 303 305 299 291 284 279 281 283 281 280 278 273 270 268 266 265 265 262 259 257 257 258 260 262 263 264 262 258 254 250 247 249 255 263 270 274 274 266 253 246 243 241 242 244 242 240 240 241 243 246 253 257 250 238 231 226 222 221 214 210 216 220 219 221 230 233 238 258 270 272 271 271 272 275 277 278 279 281 282 284 285 286 287
286 285 285 286 285 283 280 278 280 280 278 278 278 276 274 271 267 265 266 265 264 262 260 260 260 260 260 260 258 257 256 253 253 256 259 261 264 265 262 256 247 241 239 241 243 240 236 236 238 241 246 253 251 237 224 221 222 217 210 212 214 215 223 232 234 237 243 245 242 248 260 267 270 273 276 278 280 282 283 284 286 288 290 291 292
286 283 281 281 279 277 278 279 279 277 273 272 272 271 270 267 264 263 264 264 264 263 260 260 260 259 260 261 260 260 259 257 256 259 260 258 256 255 250 242 240 239 238 240 240 232 226 230 235 239 242 241 227 212 206 204 203 203 203 210 219 224 230 240 248 251 255 257 255 254 259 267 273 276 278 280 283 286 289 291 294 298 301 303 305
282 280 280 279 276 274 275 276 276 274 272 271 271 270 269 268 265 263 262 260 260 261 262 261 261 261 261 262 262 262 261 259 258 257 256 253 250 248 241 236 238 241 237 232 230 225 220 223 230 236 233 220 205 199 197 194 192 197 203 207 217 230 239 250 260 263 266 269 268 267 272 279 284 286 290 296 302 306 308 308 309 311 313 313 314
279 278 277 276 274 273 272 272 272 272 272 272 272 271 270 269 268 265 262 259 259 261 263 260 257 259 261 261 261 261 259 258 258 257 254 250 246 246 244 242 244 245 237 226 225 227 221 218 224 227 216 200 192 189 189 190 190 192 195 200 209 218 229 243 256 265 272 277 282 288 294 296 298 303 309 315 319 319 316 312 312 313 313 313 313
278 278 277 276 275 274 273 272 272 273 274 272 269 268 268 267 267 265 263 263 260 259 260 260 258 258 259 260 261 262 259 258 259 258 256 248 243 245 249 248 246 242 233 226 226 227 222 215 213 208 195 186 180 176 178 184 185 183 187 198 211 227 246 264 280 291 297 300 301 299 298 300 308 315 314 312 313 312 309 307 305 304 305 305 304
279 279 278 277 277 277 277 276 275 276 279 277 272 270 270 270 270 267 264 264 263 260 261 264 266 266 263 261 262 262 260 260 258 255 253 248 241 243 247 245 239 236 235 234 232 228 224 216 205 193 183 175 170 171 178 181 181 184 195 213 245 273 284 290 297 304 304 297 291 291 296 308 314 306 296 293 292 292 294 296 299 303 307 308 306
282 284 283 281 282 284 284 284 281 280 281 279 275 274 273 271 271 268 265 266 268 268 266 266 266 265 263 261 260 259 258 258 252 248 251 251 247 242 236 233 238 240 241 245 244 232 219 207 193 184 180 176 173 173 176 175 178 190 207 233 262 279 287 290 293 298 294 285 288 310 326 312 297 290 289 292 293 294 299 305 308 310 312 312 310
283 286 286 284 283 282 282 282 281 279 277 275 272 271 270 268 267 266 265 264 265 266 265 263 260 259 258 256 256 256 255 252 249 248 250 250 246 240 235 242 254 248 236 237 237 221 204 194 185 181 180 180 178 173 171 177 185 192 205 228 253 277 292 292 291 295 295 299 328 340 319 297 291 295 300 303 306 308 310 311 311 310 310 310 310
283 284 284 281 279 279 278 278 277 276 275 273 272 270 268 265 263 261 260 260 258 257 258 257 253 253 253 251 249 250 250 251 251 249 245 243 240 239 239 246 253 240 224 217 209 197 189 186 183 177 170 170 172 172 175 183 187 188 198 229 273 292 303 312 309 307 330 3 352 323 306 300 303 306 307 308 309 311 312 313 313 313 314 315 314